Starlink 30992

operational
NORAD ID: 58524 Int'l Des: 2023-191 Owner: SPXS Country: US Constellation: starlink
LEOCIRCULAR

About Starlink 30992

Description loading...

Live Position

Loading 3D Globe...

Upcoming Passes

Altitude History

Altitude vs Time

uPlot chart will show altitude changes over time

Two-Line Element Set

1 58524U 23191S 25304.66737587 .00001505 00000-0 12643-3 0 9993
2 58524 43.0026 86.9963 0001480 277.1048 82.9626 15.02541420106031
Epoch: Oct 31, 2025 • Age: 8 hours

Current Status

Altitude 564.9 km
Velocity 7.58 km/s
Sub-Earth Point -26.28°S, 15.69°E
Launch Date Dec 7, 2023
Age 1.9 years
Type internet

Technical Details

Classification Payload
Mass 730.00 kg
Dry Mass 700.00 kg
Total Mass 730.00 kg
Length 0.30 m
Diameter 4.10 m
Span 29.00 m
Shape Box + pan
Manufacturer SPXS
Bus Type Starlink V2M
Phase Status In Orbit
Owner/State SPXS/US

Large Constellations

Loading constellations...